ATLAS CENTAUR 2 DEB

Satellite information

Favourite Embed

Satellite Type and Status

DEBRISIN ORBIT

Key statistics

Satellite ATLAS CENTAUR 2 DEB at a glance.

Uptime

22663

Days in orbit

Revolutions

≈ 13.4

Per day

Orbit

LEO

Low Earth Orbit

Inclination

30.5

Latest

Satellite identification and parameters

Extended collection of information and parameters for ATLAS CENTAUR 2 DEB.

Object identification

Identified? True

Debris? True

Object name: ATLAS CENTAUR 2 DEB

International designator: 1963-047F

Object number (NORAD): 700

Object ID (CCSDS): 700

Country: UNITED STATES OF AMERICA (US)

Current information (Y/N): Y

RCS size: MEDIUM

Orbital parameters

Period: 107.455 minutes

Inclination: 30.4771 deg

SMA: 7487.071 km

Apoapsis: 1646.05 km

Periapsis: 571.822 km

RAAN: 233.7136 deg

Eccentricy: 0.07173888

Argument of periapsis: 73.3119 deg

Mean anomaly: 294.4926 deg

Mean motion: 13.40092711 rev/day

Mean motion (dot): 0.00000848 rev/day2

B* drag term: 0.00030598876 1/REarth

Two-line elements (TLE)

Creation date: Dec. 14, 2025, 3:07 a.m.

Reference frame: TEME

Reference center: EARTH

Epoch: Dec. 13, 2025, 9:58 a.m. UTC

TLE line 0: 0 ATLAS CENTAUR 2 DEB

TLE line 1: 1 00700U 63047F 25347.41529155 .00000848 00000-0 30599-3 0 9999

TLE line 2: 2 00700 30.4771 233.7136 0717389 73.3119 294.4926 13.40092711 25196

Live tracking on map

Real-time ground track for satellite ATLAS CENTAUR 2 DEB.

In-orbit conjunctions

A list of the most updated potential collisions computed for object ATLAS CENTAUR 2 DEB.

Target Orbit TCA Probability of collision Miss distance Type
CZ-6A DEB LEO 2024-11-03 03:57:03 0.000250401 852.0 (m) DEBRIS

Associated space launch

Test flight of the cryogenic Centaur stage.

ATLAS CENTAUR 2 DEB was lifted into orbit during the mission ‘Atlas Centaur | AC-2 Instrumentation Ring’, on board a Atlas Centaur space rocket.

The launch took place on Nov. 27, 1963, 7:03 p.m. from Launch Complex 36A.

For more information about the launch, click the button.

Launch to space Atlas Centaur | AC-2 Instrumentation Ring
Atlas Centaur | AC-2 Instrumentation Ring

Agency: N/A

Status: Launch Successful

Launch date: Nov. 27, 1963, 7:03 p.m. UTC

Rocket: Atlas Centaur

Launch pad: Launch Complex 36A

Location: Cape Canaveral SFS, FL, USA

...

Latest news about this satellite

There are no fresh news available about this satellite. Check back as we update our databases every day.


Newsletter sign-up

Weekly statistics, charts and insights to help you stay on top of the space industry.